TimePDT,TemperatureF,Dew PointF,Humidity,Sea Level PressureIn,VisibilityMPH,Wind Direction,Wind SpeedMPH,Gust SpeedMPH,PrecipitationIn,Events,Conditions,WindDirDegrees,DateUTC
12:53 AM,55.9,45.0,67,29.90,10.0,North,4.6,-,N/A,,Overcast,10,2013-05-21 07:53:00
1:53 AM,55.0,45.0,69,29.90,10.0,North,3.5,-,N/A,,Overcast,360,2013-05-21 08:53:00
2:11 AM,53.6,46.4,77,29.91,10.0,NW,6.9,-,0.00,,Overcast,310,2013-05-21 09:11:00
2:53 AM,53.1,46.0,77,29.91,10.0,NW,5.8,-,0.00,,Overcast,320,2013-05-21 09:53:00
3:53 AM,52.0,44.1,74,29.91,10.0,Calm,Calm,-,0.00,Rain,Light Rain,0,2013-05-21 10:53:00
4:20 AM,51.8,44.6,76,29.91,10.0,ESE,3.5,-,0.00,Rain,Light Rain,110,2013-05-21 11:20:00
4:39 AM,51.8,46.4,82,29.91,10.0,ESE,3.5,-,0.00,,Overcast,110,2013-05-21 11:39:00
4:53 AM,51.1,46.9,86,29.90,10.0,SE,6.9,-,0.00,,Overcast,140,2013-05-21 11:53:00
5:53 AM,50.0,46.0,86,29.90,10.0,SSE,3.5,-,0.00,,Overcast,150,2013-05-21 12:53:00
6:53 AM,50.0,46.0,86,29.88,10.0,SSE,8.1,-,N/A,,Overcast,150,2013-05-21 13:53:00
7:32 AM,50.0,44.6,82,29.88,10.0,South,8.1,-,N/A,,Overcast,190,2013-05-21 14:32:00
7:53 AM,50.0,44.1,80,29.87,10.0,SSW,6.9,-,N/A,,Overcast,210,2013-05-21 14:53:00
8:53 AM,48.9,46.9,93,29.86,4.0,West,8.1,-,0.00,Rain,Light Rain,270,2013-05-21 15:53:00
9:04 AM,48.2,46.4,93,29.87,3.0,WSW,5.8,-,0.01,Rain,Light Rain,250,2013-05-21 16:04:00
9:53 AM,50.0,46.0,86,29.87,10.0,North,3.5,-,0.01,,Overcast,360,2013-05-21 16:53:00
10:17 AM,51.8,46.4,82,29.86,10.0,Calm,Calm,-,N/A,,Overcast,0,2013-05-21 17:17:00
10:53 AM,53.1,46.9,80,29.86,10.0,Calm,Calm,-,N/A,,Overcast,0,2013-05-21 17:53:00
11:53 AM,57.0,44.1,62,29.84,10.0,South,3.5,-,N/A,,Mostly Cloudy,180,2013-05-21 18:53:00
12:53 PM,55.0,46.0,72,29.84,10.0,WNW,12.7,17.3,0.00,Rain,Light Rain,290,2013-05-21 19:53:00
1:11 PM,51.8,44.6,76,29.86,2.0,WSW,13.8,21.9,0.02,Rain,Rain,250,2013-05-21 20:11:00
1:14 PM,48.2,44.6,87,29.86,3.0,SW,5.8,21.9,0.06,Rain,Heavy Rain,220,2013-05-21 20:14:00
1:31 PM,50.0,46.4,87,29.85,7.0,Calm,Calm,-,0.21,Rain,Light Rain,0,2013-05-21 20:31:00
1:53 PM,52.0,46.9,83,29.86,7.0,NW,9.2,-,0.22,Rain,Light Rain,310,2013-05-21 20:53:00
2:53 PM,51.1,45.0,80,29.87,10.0,NNW,8.1,17.3,0.06,Rain,Light Rain,330,2013-05-21 21:53:00
3:53 PM,50.0,42.1,74,29.90,9.0,WNW,17.3,25.3,0.01,Rain,Light Rain,290,2013-05-21 22:53:00
4:53 PM,48.9,44.1,83,29.93,8.0,WSW,11.5,-,0.04,Rain,Light Rain,240,2013-05-21 23:53:00
5:53 PM,48.9,46.0,90,29.94,7.0,South,11.5,-,0.05,Rain,Light Rain,190,2013-05-22 00:53:00
6:53 PM,48.0,44.1,86,29.95,4.0,SW,8.1,-,0.08,Rain,Light Rain,230,2013-05-22 01:53:00
7:53 PM,48.0,44.1,86,29.97,10.0,SW,6.9,-,0.02,Rain,Light Rain,220,2013-05-22 02:53:00
8:53 PM,46.9,43.0,86,29.97,10.0,SSW,9.2,-,0.00,,Overcast,210,2013-05-22 03:53:00
9:53 PM,46.0,42.1,86,29.98,10.0,SSW,11.5,-,N/A,,Overcast,200,2013-05-22 04:53:00
10:53 PM,46.0,42.1,86,29.98,10.0,SSW,11.5,-,N/A,,Overcast,200,2013-05-22 05:53:00
11:53 PM,45.0,42.1,90,29.99,10.0,SSW,12.7,-,N/A,,Overcast,200,2013-05-22 06:53:00